This is the latest recevied weather packets stored in our database for station/object GW4288. If no packets are shown the sender has not sent any weather packets the latest 1 day(s).
| Time | Temp. | Humidity | Pressure | Rain* | Wind** | Luminosity | Snow |
|---|---|---|---|---|---|---|---|
| 1778160296 | 18.89° C | 60% | 1012.5 hPa | 0 mm | - | 124 W/m² | - |
| 1778160176 | 18.89° C | 61% | 1012.6 hPa | 0 mm | - | 134 W/m² | - |
| 1778160066 | 18.89° C | 60% | 1012.5 hPa | 0 mm | - | 167 W/m² | - |
| 1778159936 | 18.89° C | 61% | 1012.6 hPa | 0 mm | - | 187 W/m² | - |
| 1778159912 | 18.89° C | 62% | 1012.6 hPa | 0 mm | - | 181 W/m² | - |
| 1778159696 | 18.89° C | 62% | 1012.6 hPa | 0 mm | - | 177 W/m² | - |
| 1778159576 | 18.89° C | 61% | 1012.4 hPa | 0 mm | - | 178 W/m² | - |
| 1778159466 | 18.89° C | 61% | 1012.4 hPa | 0 mm | - | 202 W/m² | - |
| 1778159336 | 18.89° C | 62% | 1012.4 hPa | 0 mm | - | 243 W/m² | - |
| 1778159229 | 18.89° C | 61% | 1012.6 hPa | 0 mm | - | 225 W/m² | - |
| 1778159096 | 18.89° C | 63% | 1012.6 hPa | 0 mm | - | 243 W/m² | - |
| 1778158976 | 18.89° C | 64% | 1012.5 hPa | 0 mm | - | 223 W/m² | - |
| 1778158882 | 18.89° C | 63% | 1012.5 hPa | 0 mm | - | 206 W/m² | - |
| 1778158737 | 18.89° C | 63% | 1012.6 hPa | 0 mm | - | 195 W/m² | - |
| 1778158616 | 18.89° C | 63% | 1012.7 hPa | 0 mm | - | 196 W/m² | - |
| 1778158496 | 18.89° C | 63% | 1012.6 hPa | 0 mm | - | 194 W/m² | - |
| 1778158377 | 19.44° C | 62% | 1012.6 hPa | 0 mm | - | 184 W/m² | - |
| 1778158266 | 18.89° C | 63% | 1012.7 hPa | 0 mm | - | 216 W/m² | - |
| 1778158136 | 18.89° C | 62% | 1012.6 hPa | 0 mm | - | 192 W/m² | - |
| 1778158016 | 19.44° C | 65% | 1012.6 hPa | 0 mm | - | 192 W/m² | - |
| 1778157896 | 19.44° C | 64% | 1012.8 hPa | 0 mm | - | 219 W/m² | - |
| 1778157807 | 19.44° C | 66% | 1012.5 hPa | 0 mm | - | 258 W/m² | - |
| 1778157792 | 19.44° C | 66% | 1012.5 hPa | 0 mm | - | 313 W/m² | - |
| 1778157537 | 18.89° C | 67% | 1012.5 hPa | 0 mm | - | 280 W/m² | - |
| 1778157417 | 18.89° C | 71% | 1012.6 hPa | 0 mm | - | 249 W/m² | - |
* Rain latest hour (hover to see other rain measurements)
** Current wind speed in m/s (hover to see current wind gust speed)